map of GEO home
Great Circle Mapper logo
GEO - Airport
Location
City:  Georgetown, Demerara-Mahaica, Guyana
Name:Cheddi Jagan International Airport
Old (Alt.):Timehri International Airport
ICAO:SYCJ
IATA:GEO

Details
Type:Airport (Aerodrome, Airfield)
Use:Public/Civil, International (customs port of entry)
Latitude:629'55"N (6.498553)
Longitude:5815'15"W (-58.254118)
Datum:WGS 1984
Elevation:95 ft (29 m)
Variation:16.32W (WMM2015 magnetic declination)
-0.06 annual change
Runways:2
Longest:7448 × 148 ft (2270 × 45 m), paved

Time
Time Zone:UTC-4
Local Time:

Weather
METAR:SYCJ 260300Z 00000KT CAVOK 24/24 Q1013 NOSIG
TAF:SYCJ 252309Z 2600/2624 05006KT FEW014
BECMG 2605/2607 VRB02KT 4000 BR SCT012 SCT038
BECMG 2612/2614 07012KT 9999 BKN018

Related Locations
Nearby:
Farthest:WAWH: 12356 mi / 19884 km
H. Aroeppala Selayar [H. Aroeppala Selayar Airport], SN, ID

Find:

   beyond  
but within

Other Information
Maps:
NOTAMs:
Links:
Sources:

  
flag of Guyana   

Sectional Chart

Flight Planning
at skyvector.com

Satellite Image

Google Maps Satellite view

 

Copyright © 2004-2016 Karl L. Swartz. All rights reserved.
The Great Circle Mapper name and logo are trademarks of the Great Circle Mapper.
All other trademarks mentioned herein belong to their respective owners.
Please see credits for attibutions and further copyright information.

  Follow gcmap on Facebook Follow gcmap on Twitter Follow gcmap on Google+ GCmap on LinkedIn

hCard Microformat

Geo Microformat